Defiance, OH

7:53 AM EST on November 20, 2017 (GMT -0500)
Defiance Memorial

Weather History for KDFI - June, 2014

Change the Weather History Date:

Thursday, June 19, 2014

  Actual Average Record
Temperature  
Mean Temperature 74 °F -  
Max Temperature 79 °F 82 °F 96 °F (2012)
Min Temperature 66 °F 57 °F 46 °F (1980)
Cooling Degree Days 9    
Growing Degree Days 24 (Base 50)    
Moisture  
Dew Point 66 °F    
Average Humidity 79    
Maximum Humidity 93    
Minimum Humidity 64    
Precipitation  
Precipitation 0.00 in - - ()
Sea Level Pressure  
Sea Level Pressure 30.07 in    
Wind  
Wind Speed 5 mph (NE)    
Max Wind Speed 13 mph    
Max Gust Speed -    
Visibility 9 miles    
Events Rain    
Averages and records for this station are not official NWS values.
T = Trace of Precipitation, MM = Missing Value Source: NWS Daily Summary

Daily Weather History Graph

Daily Weather History Graph

Search for Another Location

Airport or City:

Trip Planner

Search our weather history database for the weather conditions in past years. The results will help you decide how hot, cold, wet, or windy it might be!

Date:

Astronomy

Jun. 19, 2014 Rise Set
Actual Time 6:04 AM EDT 9:14 PM EDT
Civil Twilight 5:30 AM EDT 9:48 PM EDT
Nautical Twilight 4:46 AM EDT 10:31 PM EDT
Astronomical Twilight 3:54 AM EDT 11:23 PM EDT
Moon 1:13 AM EDT (6/19) 1:38 PM EDT (6/19)
Length of Visible Light 16h 17m
Length of Day
15h 09m
Waning Gibbous, 51% of the Moon is Illuminated
Jun 19
Waning Gibbous
Jun 19
Last Quarter
Jun 27
New
Jul 5
First Quarter
Jul 12
Full

Hourly Weather History & Observations

Time (EDT) Temp. Dew Point Humidity Pressure Visibility Wind Dir Wind Speed Gust Speed Precip Events Conditions
12:08 AM 71.1 °F 66.9 °F 87% 29.99 in 9.0 mi Calm Calm - 0.00 in Rain Light Rain
12:53 AM 71.1 °F 66.9 °F 87% 29.97 in 10.0 mi NNE 6.9 mph - 0.00 in   Overcast
1:12 AM 70.0 °F 66.9 °F 90% 29.99 in 10.0 mi NNE 8.1 mph - N/A   Overcast
1:53 AM 70.0 °F 66.9 °F 90% 29.98 in 10.0 mi SE 6.9 mph - N/A   Overcast
2:04 AM 70.0 °F 66.9 °F 90% 30.01 in 10.0 mi Variable 4.6 mph - N/A   Overcast
2:11 AM 70.0 °F 66.9 °F 90% 30.01 in 6.0 mi ENE 3.5 mph - 0.02 in Rain Rain
2:24 AM 70.0 °F 68.0 °F 93% 30.01 in 3.0 mi Calm Calm - 0.08 in Rain Light Rain
3:53 AM 70.0 °F 66.9 °F 90% 29.99 in 4.0 mi North 5.8 mph - N/A   Overcast
4:17 AM 69.1 °F 66.9 °F 93% 30.00 in 5.0 mi North 6.9 mph - N/A   Overcast
4:38 AM 69.1 °F 66.9 °F 93% 30.00 in 6.0 mi Calm Calm - N/A   Overcast
4:53 AM 69.1 °F 66.0 °F 90% 30.00 in 5.0 mi North 3.5 mph - N/A   Overcast
6:53 AM 69.1 °F 66.0 °F 90% 30.05 in 5.0 mi North 8.1 mph - N/A   Overcast
7:48 AM 69.8 °F 66.2 °F 88% 30.07 in 8.0 mi North 6.9 mph - N/A   Overcast
7:49 AM 70.0 °F 66.0 °F 87% 30.06 in 8.0 mi North 6.9 mph - N/A   Overcast
8:14 AM 71.1 °F 66.9 °F 87% 30.09 in 10.0 mi NNW 8.1 mph - N/A   Scattered Clouds
8:35 AM 72.0 °F 66.9 °F 84% 30.10 in 10.0 mi North 3.5 mph - N/A   Scattered Clouds
8:49 AM 71.6 °F 66.2 °F 83% 30.11 in 10.0 mi Variable 3.5 mph - N/A   Mostly Cloudy
8:53 AM 73.0 °F 66.9 °F 81% 30.10 in 10.0 mi NNE 3.5 mph - N/A   Mostly Cloudy
9:20 AM 73.0 °F 66.9 °F 81% 30.11 in 10.0 mi NNE 6.9 mph - N/A   Mostly Cloudy
9:27 AM 73.0 °F 66.0 °F 79% 30.11 in 10.0 mi NNE 6.9 mph - N/A   Mostly Cloudy
9:53 AM 73.0 °F 66.0 °F 79% 30.10 in 10.0 mi NNE 6.9 mph - N/A   Mostly Cloudy
10:03 AM 73.0 °F 66.0 °F 79% 30.11 in 10.0 mi NNE 6.9 mph - N/A   Overcast
10:10 AM 73.9 °F 66.0 °F 76% 30.11 in 10.0 mi NNE 5.8 mph - N/A   Overcast
10:25 AM 73.9 °F 66.0 °F 76% 30.11 in 10.0 mi NNE 6.9 mph - N/A   Overcast
10:28 AM 73.9 °F 66.0 °F 76% 30.11 in 10.0 mi NNE 8.1 mph - N/A   Overcast
11:50 AM 75.2 °F 64.4 °F 69% 30.11 in 10.0 mi North 4.6 mph - N/A   Mostly Cloudy
11:53 AM 77.0 °F 66.0 °F 69% 30.11 in 10.0 mi North 6.9 mph - N/A   Mostly Cloudy
12:53 PM 75.9 °F 64.9 °F 69% 30.11 in 10.0 mi ENE 9.2 mph - N/A   Overcast
1:45 PM 77.0 °F 66.0 °F 69% 30.12 in 9.0 mi ENE 9.2 mph - N/A   Overcast
1:53 PM 79.0 °F 66.0 °F 64% 30.11 in 10.0 mi NE 10.4 mph - N/A   Overcast
2:33 PM 75.9 °F 66.0 °F 71% 30.13 in 10.0 mi East 10.4 mph - N/A   Overcast
2:44 PM 78.1 °F 66.0 °F 66% 30.12 in 10.0 mi ENE 10.4 mph - N/A   Overcast
2:53 PM 78.1 °F 66.0 °F 66% 30.11 in 8.0 mi ENE 10.4 mph - N/A   Overcast
3:53 PM 77.0 °F 66.0 °F 69% 30.10 in 9.0 mi ENE 6.9 mph - N/A   Overcast
4:53 PM 77.0 °F 64.9 °F 66% 30.11 in 10.0 mi NE 6.9 mph - N/A   Overcast
5:53 PM 77.0 °F 64.0 °F 64% 30.08 in 10.0 mi East 12.7 mph - N/A   Overcast
6:53 PM 75.9 °F 64.0 °F 67% 30.09 in 10.0 mi ESE 6.9 mph - N/A   Mostly Cloudy
7:53 PM 75.9 °F 63.0 °F 64% 30.09 in 10.0 mi East 9.2 mph - N/A   Clear
8:53 PM 73.0 °F 62.1 °F 68% 30.09 in 10.0 mi ENE 6.9 mph - N/A   Clear
9:53 PM 71.1 °F 62.1 °F 73% 30.10 in 10.0 mi NE 4.6 mph - N/A   Clear
10:53 PM 70.0 °F 61.0 °F 73% 30.10 in 10.0 mi East 8.1 mph - N/A   Clear
11:53 PM 66.9 °F 61.0 °F 81% 30.11 in 10.0 mi East 4.6 mph - N/A   Clear